Stations météo

réclame
Mon MeteoGroup
Lulea/Kallax, Suède (2186): Température de l'air & dewpoint: 14.01.2021 07:00:00 - 20.01.2021 07:00:00 (CET)Lulea/Kallax, Suède (2186): Vitesse du vent & gusts: 14.01.2021 07:00:00 - 20.01.2021 07:00:00 (CET)Lulea/Kallax, Suède (2186): Direction du vent: 14.01.2021 07:00:00 - 20.01.2021 07:00:00 (CET)Lulea/Kallax, Suède (2186): reduced air pressure: 14.01.2021 07:00:00 - 20.01.2021 07:00:00 (CET)Lulea/Kallax, Suède (2186): visibility: 14.01.2021 07:00:00 - 20.01.2021 07:00:00 (CET)Lulea/Kallax, Suède (2186): Quantités de précipitations: 14.01.2021 07:00:00 - 20.01.2021 07:00:00 (CET)
Date & Time tt [°C] td [°C] ff [km/h] ff [knt] fx [km/h] fx [knt] dd ppp [hPa] vv [km] rr [mm]
20.01.2021 07:00:00 -11,0 -12,0 11 6 18 10 NNE 1011,5 6 0,4
20.01.2021 06:00:00 -10,7 -11,7 8 4 18 10 NNE 1011,6 8 0,2
20.01.2021 05:00:00 -10,6 -11,6 9 5 18 10 NE 1011,6 9 0,1
20.01.2021 04:00:00 -10,4 -11,4 9 5 18 10 NNE 1011,6 8 0,5
20.01.2021 03:00:00 -10,5 -11,5 9 5 18 10 NNE 1011,5 10 0,1
20.01.2021 02:00:00 -10,7 -11,7 9 5 18 10 NNE 1011,7 10 0,0
20.01.2021 01:00:00 -10,6 -11,6 8 4 14 8 NNE 1011,8 10 0,0
20.01.2021 00:00:00 -10,8 -11,8 8 4 14 8 NNE 1012,0 10 0,2
19.01.2021 23:00:00 -11,4 -12,6 8 4 14 8 N 1011,8 6 0,0
19.01.2021 22:00:00 -11,7 -12,9 8 4 14 8 N 1011,7 9 0,0
19.01.2021 21:00:00 -11,8 -13,0 5 3 14 8 N 1011,7 10 0,0
19.01.2021 20:00:00 -12,0 -13,2 9 5 14 8 N 1011,6 10 0,0
19.01.2021 19:00:00 -12,2 -13,4 5 3 14 8 N 1011,5 10 0,0
19.01.2021 18:00:00 -12,5 -13,7 8 4 14 8 N 1011,2 6 0,0
19.01.2021 17:00:00 -13,0 -14,2 9 5 18 10 N 1011,0 5 0,0
19.01.2021 16:00:00 -13,6 -14,9 9 5 18 10 N 1011,0 6 0,0
19.01.2021 15:00:00 -13,9 -15,3 11 6 18 10 N 1010,8 7 0,0
19.01.2021 14:00:00 -14,4 -15,8 11 6 18 10 N 1010,5 3,0 0,0
19.01.2021 13:00:00 -15,1 -16,6 8 4 18 10 N 1010,4 5 0,0
19.01.2021 12:00:00 -15,8 -17,3 0 0 4 2 N 1010,4 3,0 0,0
19.01.2021 11:00:00 -16,9 -18,5 0 0 0 0 N 1010,1 2,0 0,0
19.01.2021 10:00:00 -17,1 -18,7 0 0 0 0 N 1010,5 3,0 0,0
19.01.2021 09:00:00 -17,3 -18,9 0 0 4 2 N 1010,1 4,5 0,0
19.01.2021 08:00:00 -18,4 -20,2 2 1 4 2 NNW 1009,7 6 0,0
19.01.2021 07:00:00 -18,4 -20,2 2 1 4 2 NNW 1009,7 4,0 0,1
19.01.2021 06:00:00 -18,3 -20,1 2 1 4 2 NNW 1009,5 4,0 0,0
19.01.2021 05:00:00 -18,2 -20,0 0 0 0 0 N 1009,4 5 0,0
19.01.2021 04:00:00 -18,2 -20,0 2 1 14 8 NNW 1009,2 5 0,0
19.01.2021 03:00:00 -17,9 -19,7 0 0 11 6 N 1009,0 5 0,0
19.01.2021 02:00:00 -17,5 -19,1 5 3 14 8 NW 1009,1 5 0,0
19.01.2021 01:00:00 -17,4 -19,0 0 0 7 4 N 1008,9 2,7 0,0
19.01.2021 00:00:00 -16,7 -18,4 0 0 4 2 N 1009,0 3,1 0,0
18.01.2021 23:00:00 -16,8 -18,4 0 0 4 2 N 1009,1 4,9 0,0
18.01.2021 22:00:00 -16,1 -17,6 0 0 0 0 N 1009,0 2,5 0,0
18.01.2021 21:00:00 -15,8 -17,3 0 0 0 0 N 1008,7 4,1 0,0
18.01.2021 20:00:00 -15,7 -17,2 0 0 0 0 N 1008,6 2,5 0,0
18.01.2021 19:00:00 -16,2 -17,7 2 1 4 2 NNW 1008,5 5 0,0
18.01.2021 18:00:00 -16,7 -18,4 0 0 4 2 N 1008,4 10 0,0
18.01.2021 17:00:00 -17,3 -18,9 0 0 4 2 N 1008,4 10 0,0
18.01.2021 16:00:00 -17,6 -19,2 2 1 7 4 NNW 1008,6 7 0,0
18.01.2021 15:00:00 -17,4 -19,0 4 2 7 4 NW 1008,7 2,0 0,0
18.01.2021 14:00:00 -16,7 -18,4 0 0 4 2 N 1008,8 10 0,0
18.01.2021 13:00:00 -15,5 -17,0 0 0 4 2 N 1008,8 7 0,0
18.01.2021 12:00:00 -14,9 -16,3 4 2 7 4 NW 1009,0 2,0 0,0
18.01.2021 11:00:00 -14,2 -15,6 4 2 11 6 NW 1009,3 2,0 0,0
18.01.2021 10:00:00 -14,2 -15,6 9 5 14 8 NW 1009,3 1,5 0,0
18.01.2021 09:00:00 -14,0 -15,1 11 6 14 8 NW 1009,4 3,0 0,0
18.01.2021 08:00:00 -14,3 -15,7 8 4 14 8 N 1009,5 10 0,0
18.01.2021 07:00:00 -15,5 -17,0 9 5 14 8 NW 1009,4 10 0,0
18.01.2021 06:00:00 -14,2 -15,7 5 3 11 6 N 1009,6 10 0,0
18.01.2021 05:00:00 -14,3 -15,7 5 3 11 6 N 1009,9 10 0,0
18.01.2021 04:00:00 -14,4 -15,9 5 3 7 4 NNW 1010,2 10 0,0
18.01.2021 03:00:00 -14,8 -16,3 4 2 7 4 - 1010,6 10 0,0
18.01.2021 02:00:00 -15,0 -16,5 0 0 11 6 N 1010,8 10 0,0
18.01.2021 01:00:00 -15,0 -16,4 5 3 14 8 NNW 1010,9 10 0,0
18.01.2021 00:00:00 -16,8 -18,4 8 4 14 8 N 1011,4 10 0,0
17.01.2021 23:00:00 -18,6 -20,4 0 0 11 6 N 1011,9 10 0,0
17.01.2021 22:00:00 -18,0 -19,8 2 1 7 4 - 1012,4 10 0,0
17.01.2021 21:00:00 -17,7 -19,5 2 1 4 2 NW 1012,6 10 0,0
17.01.2021 20:00:00 -17,8 -19,6 0 0 11 6 N 1012,6 10 0,0
17.01.2021 19:00:00 -17,3 -18,9 5 3 11 6 N 1012,5 10 0,0
17.01.2021 18:00:00 -17,5 -19,1 2 1 4 2 - 1012,8 10 0,0
17.01.2021 17:00:00 -16,7 -18,4 4 2 4 2 - 1012,9 10 0,0
17.01.2021 16:00:00 -16,3 -17,8 2 1 4 2 S 1013,2 10 0,0
17.01.2021 15:00:00 -15,2 -16,6 2 1 7 4 WNW 1013,4 10 0,0
17.01.2021 14:00:00 -14,4 -15,9 8 4 7 4 NW 1013,4 10 0,0
17.01.2021 13:00:00 -14,0 -15,4 4 2 7 4 NW 1013,8 10 0,0
17.01.2021 12:00:00 -14,5 -15,9 4 2 7 4 NNW 1013,9 10 0,0
17.01.2021 11:00:00 -15,7 -17,2 2 1 4 2 W 1014,3 10 0,0
17.01.2021 10:00:00 -17,1 -18,7 0 0 4 2 N 1014,5 10 0,0
17.01.2021 09:00:00 -15,4 -16,8 4 2 7 4 NNW 1014,4 10 0,0
17.01.2021 08:00:00 -15,5 -16,9 7 4 7 4 NW 1014,6 50 0,0
17.01.2021 07:00:00 -17,0 -18,6 2 1 7 4 WNW 1014,7 10 0,0
17.01.2021 06:00:00 -16,3 -17,8 4 2 11 6 NW 1014,7 10 0,0
17.01.2021 05:00:00 -14,4 -15,9 9 5 14 8 NW 1015,0 10 0,0
17.01.2021 04:00:00 -15,2 -16,5 5 3 7 4 NNW 1015,5 10 0,0
17.01.2021 03:00:00 -15,0 -16,4 2 1 14 8 - 1015,7 10 0,0
17.01.2021 02:00:00 -12,9 -14,1 9 5 14 8 NW 1016,1 10 0,0
17.01.2021 01:00:00 -13,7 -15,0 9 5 14 8 NNW 1016,6 10 0,0
17.01.2021 00:00:00 -12,6 -13,8 5 3 14 8 NNW 1017,0 10 0,0
16.01.2021 23:00:00 -12,6 -13,8 8 4 14 8 NNW 1017,6 10 0,0
16.01.2021 22:00:00 -11,8 -13,0 8 4 11 6 NW 1017,9 10 0,0
16.01.2021 21:00:00 -10,8 -11,7 5 3 11 6 NW 1018,0 10 0,0
16.01.2021 20:00:00 -10,6 -11,6 9 5 11 6 NW 1018,2 10 0,0
16.01.2021 19:00:00 -10,6 -11,5 8 4 11 6 NW 1018,5 10 0,0
16.01.2021 18:00:00 -10,2 -11,0 5 3 11 6 NNW 1018,8 10 0,0
16.01.2021 17:00:00 -9,7 -10,6 11 6 14 8 NW 1019,0 10 0,0
16.01.2021 16:00:00 -9,8 -10,9 13 7 14 8 NW 1019,2 10 0,0
16.01.2021 15:00:00 -8,1 -9,4 11 6 18 10 NNW 1019,4 10 0,0
16.01.2021 14:00:00 -8,3 -9,6 11 6 18 10 NW 1019,7 10 0,0
16.01.2021 13:00:00 -7,8 -9,2 11 6 18 10 NW 1020,0 10 0,0
16.01.2021 12:00:00 -8,0 -9,3 13 7 22 12 NNW 1020,4 10 0,0
16.01.2021 11:00:00 -7,7 -9,1 15 8 22 12 NNW 1020,6 10 0,0
16.01.2021 10:00:00 -7,8 -9,0 11 6 18 10 NNW 1020,8 10 0,0
16.01.2021 09:00:00 -7,0 -8,4 13 7 22 12 NNW 1020,9 10 0,0
16.01.2021 08:00:00 -7,0 -8,4 15 8 22 12 NNW 1020,9 10 0,0
16.01.2021 07:00:00 -6,6 -8,0 13 7 22 12 NNW 1020,7 10 0,0
16.01.2021 06:00:00 -6,2 -7,6 13 7 22 12 NNW 1020,6 10 0,0
16.01.2021 05:00:00 -5,5 -6,7 15 8 22 12 NNW 1020,8 10 0,0
16.01.2021 04:00:00 -5,0 -6,5 15 8 25 14 NNW 1020,8 10 0,0
16.01.2021 03:00:00 -5,2 -6,9 18 10 25 14 NNW 1020,5 10 0,0
16.01.2021 02:00:00 -5,5 -6,9 13 7 25 14 NNW 1020,6 10 0,0
16.01.2021 01:00:00 -6,6 -8,0 16 9 25 14 NNW 1020,6 10 0,0
16.01.2021 00:00:00 -6,0 -7,4 18 10 29 16 NNW 1020,6 10 0,0
15.01.2021 23:00:00 -4,7 -6,4 24 13 32 18 NNW 1020,5 10 0,0
15.01.2021 22:00:00 -5,3 -6,7 21 11 29 16 NNW 1020,2 10 0,0
15.01.2021 21:00:00 -4,7 -6,4 21 11 25 14 NNW 1019,9 10 0,0
15.01.2021 20:00:00 -4,7 -6,4 21 11 29 16 NNW 1019,8 10 0,0
15.01.2021 19:00:00 -4,3 -5,8 24 13 29 16 NNW 1019,7 10 0,0
15.01.2021 18:00:00 -4,1 -5,6 26 14 32 18 NNW 1019,6 10 0,0
15.01.2021 17:00:00 -5,5 -6,5 24 13 32 18 NNW 1019,5 10 0,0
15.01.2021 16:00:00 -5,5 -6,6 24 13 32 18 NNW 1019,6 10 0,0
15.01.2021 15:00:00 -5,9 -6,8 22 12 29 16 NNW 1019,6 10 0,0
15.01.2021 14:00:00 -5,8 -6,7 22 12 29 16 NNW 1019,8 10 0,0
15.01.2021 13:00:00 -4,9 -5,7 5 3 25 14 N 1019,7 10 0,0
15.01.2021 12:00:00 -12,4 -13,8 0 0 4 2 N 1020,3 10 0,0
15.01.2021 11:00:00 -13,6 -15,2 2 1 4 2 - 1020,7 10 0,0
15.01.2021 10:00:00 -15,0 -16,5 4 2 4 2 SSE 1020,9 10 0,0
15.01.2021 09:00:00 -15,4 -17,1 2 1 4 2 W 1020,8 10 0,0
15.01.2021 08:00:00 -16,7 -18,4 2 1 4 2 - 1021,0 10 0,0
15.01.2021 07:00:00 -18,7 -20,6 0 0 4 2 N 1021,3 10 0,0
15.01.2021 06:00:00 -19,5 -21,5 2 1 4 2 - 1021,4 10 0,0
15.01.2021 05:00:00 -20,4 -22,4 0 0 4 2 N 1021,7 10 0,0
15.01.2021 04:00:00 -21,6 -23,7 0 0 4 2 N 1022,4 10 0,0
15.01.2021 03:00:00 -22,8 -25,0 0 0 4 2 N 1022,8 10 0,0
15.01.2021 02:00:00 -22,3 -24,5 2 1 7 4 WNW 1023,3 10 0,0
15.01.2021 01:00:00 -23,1 -25,4 4 2 4 2 NNW 1023,9 10 0,0
15.01.2021 00:00:00 -22,2 -24,4 0 0 4 2 N 1024,5 10 0,0
14.01.2021 23:00:00 -21,6 -23,7 2 1 7 4 - 1024,8 10 0,0
14.01.2021 22:00:00 -22,2 -24,4 2 1 7 4 NW 1025,1 10 0,0
14.01.2021 21:00:00 -22,5 -24,7 4 2 4 2 NNW 1025,6 10 0,0
14.01.2021 20:00:00 -22,8 -25,0 0 0 7 4 N 1025,9 10 0,0
14.01.2021 19:00:00 -22,7 -24,9 2 1 7 4 NNW 1026,4 10 0,0
14.01.2021 18:00:00 -22,3 -24,5 5 3 7 4 NNW 1026,7 4,4 0,0
14.01.2021 17:00:00 -23,0 -25,4 8 4 11 6 NNW 1026,8 7 0,0
14.01.2021 16:00:00 -23,2 -25,5 4 2 7 4 NNW 1027,3 10 0,0
14.01.2021 15:00:00 -24,0 -26,3 4 2 7 4 NNW 1027,6 10 0,0
14.01.2021 14:00:00 -25,8 -28,4 4 2 7 4 NNW 1027,7 10 0,0
14.01.2021 13:00:00 -26,4 -28,9 4 2 7 4 NW 1028,0 10 0,0
14.01.2021 12:00:00 -26,4 -28,9 5 3 11 6 NNW 1028,5 10 0,0
14.01.2021 11:00:00 -25,5 -28,1 4 2 11 6 NNW 1029,0 10 0,0
14.01.2021 10:00:00 -26,5 -29,0 8 4 11 6 NW 1029,3 10 0,0
14.01.2021 09:00:00 -27,5 -30,2 9 5 14 8 N 1029,3 10 0,0
14.01.2021 08:00:00 -27,7 -30,5 11 6 14 8 N 1029,3 10 0,0
14.01.2021 07:00:00 -28,6 -31,4 8 4 14 8 N 1029,3 10 0,0

tt = Température de l'air
td = dewpoint
ff = Vitesse du vent
fx = gusts
dd = Direction du vent
ppp = reduced air pressure
vv = visibility
rr = Quantités de précipitations

stations d'obs. à proximité